Location: Albany
(35.0000°S, 118.0000°E)
Time: 12:31:19
(UTC-04:00)

ISS - All Passes

Search period start: 20 September 2017 00:00
Search period end: 30 September 2017 00:00
Orbit: 402 x 407 km, 51.6° (Epoch: 21 September)

Date Brightness Start Highest point End Pass type
(mag) Time Alt. Az. Time Alt. Az. Time Alt. Az.
20 Sep - 03:37:54 10° SSW 03:40:21 18° SSE 03:42:45 10° ESE daylight
20 Sep - 05:13:48 10° WSW 05:16:58 43° NW 05:20:07 10° NNE daylight
20 Sep - 20:15:11 10° N 20:17:58 25° NE 20:20:47 10° ESE daylight
20 Sep - 21:51:32 10° W 21:54:24 26° SW 21:57:17 10° SSE daylight
21 Sep - 02:46:24 10° S 02:47:47 12° SSE 02:49:09 10° SE daylight
21 Sep - 04:21:24 10° SW 04:24:43 82° SE 04:28:00 10° NE daylight
21 Sep - 19:24:23 10° NNE 19:25:51 12° NE 19:27:20 10° E daylight
21 Sep - 20:58:45 10° WNW 21:01:59 50° SW 21:05:14 10° SE daylight
22 Sep - 03:29:13 10° SSW 03:32:21 38° SE 03:35:29 10° ENE daylight
22 Sep - 05:06:28 10° W 05:08:35 16° NW 05:10:41 10° NNW daylight
22 Sep - 20:06:21 10° NW 20:09:39 75° NE 20:12:58 10° SE daylight
22 Sep - 21:44:38 10° WSW 21:46:28 14° SSW 21:48:20 10° S daylight
23 Sep - 02:37:14 10° SSW 02:39:53 22° SSE 02:42:33 10° E daylight
23 Sep - 04:13:24 10° WSW 04:16:25 33° NW 04:19:25 10° NNE daylight
23 Sep - 19:14:23 10° NNW 19:17:24 33° NE 19:20:26 10° ESE daylight
23 Sep - 20:51:14 10° W 20:53:55 22° SSW 20:56:36 10° SSE daylight
24 Sep - 01:45:30 10° S 01:47:20 14° SSE 01:49:09 10° ESE daylight
24 Sep - 03:20:51 10° SW 03:24:10 76° NW 03:27:27 10° NE daylight
24 Sep - 18:23:05 10° NNE 18:25:12 16° NE 18:27:20 10° E daylight
24 Sep - 19:58:17 10° WNW 20:01:25 39° SW 20:04:36 10° SSE daylight
25 Sep - 02:28:33 10° SW 02:31:48 49° SE 02:35:01 10° ENE daylight
25 Sep - 04:06:28 10° W 04:07:55 12° NW 04:09:23 10° NNW daylight
25 Sep - 19:05:43 10° NW 19:09:01 83° SW 19:12:22 10° SE daylight
25 Sep - 20:44:32 10° SW 20:45:57 12° SSW 20:47:23 10° S daylight
26 Sep - 01:36:28 10° SSW 01:39:20 26° SE 01:42:11 10° E daylight
26 Sep - 03:12:56 10° WSW 03:15:45 25° NW 03:18:31 10° N daylight
26 Sep - 18:13:32 10° NNW 18:16:42 43° NE 18:19:53 10° ESE daylight
26 Sep - 19:50:52 10° WSW 19:53:19 19° SSW 19:55:46 10° SSE daylight
27 Sep - 00:44:35 10° SSW 00:46:45 16° SSE 00:48:55 10° ESE daylight
27 Sep - 02:20:13 10° SW 02:23:29 57° NW 02:26:42 10° NE daylight
27 Sep - 17:21:55 10° N 17:24:27 20° NE 17:27:00 10° E visible
27 Sep - 18:57:45 10° WNW 19:00:46 31° SW 19:03:48 10° SSE daylight
27 Sep - 23:53:18 10° S 23:54:05 11° SSE 23:54:51 10° SE daylight
28 Sep - 01:27:49 10° SW 01:31:07 64° SE 01:34:23 10° ENE daylight
28 Sep - 18:05:01 10° WNW 18:08:18 63° SW 18:11:37 10° SE daylight
28 Sep - 19:44:33 10° SW 19:45:19 11° SSW 19:46:07 10° S daylight
29 Sep - 00:35:37 10° SSW 00:38:39 32° SE 00:41:38 10° ENE daylight
29 Sep - 02:12:26 10° W 02:14:57 20° NW 02:17:26 10° N daylight
29 Sep - 17:12:39 10° NW 17:15:55 58° NE 17:19:11 10° SE visible
29 Sep - 18:50:27 10° WSW 18:52:38 16° SSW 18:54:49 10° SSE daylight
29 Sep - 23:43:36 10° SSW 23:46:04 19° SSE 23:48:30 10° ESE daylight
